Year,Month,Day,Hour,Minute,Value (Times are PST for temperature in C)
2009,09,24,00,00,15.00
2009,09,24,00,05,15.00
2009,09,24,00,06,15.00
2009,09,24,00,07,15.00
2009,09,24,00,08,15.00
2009,09,24,00,09,15.00
2009,09,24,00,10,15.00
2009,09,24,00,11,15.00
2009,09,24,00,12,15.00
2009,09,24,00,13,15.00
2009,09,24,00,14,15.00
2009,09,24,00,15,15.00
2009,09,24,00,16,15.00
2009,09,24,00,17,14.90
2009,09,24,00,18,14.90
2009,09,24,00,19,14.80
2009,09,24,00,20,14.80
2009,09,24,00,21,14.80
2009,09,24,00,22,14.70
2009,09,24,00,23,14.70
2009,09,24,00,24,14.70
2009,09,24,00,25,14.60
2009,09,24,00,26,14.60
2009,09,24,00,27,14.60
2009,09,24,00,28,14.60
2009,09,24,00,29,14.60
2009,09,24,00,30,14.60
2009,09,24,00,31,14.50
2009,09,24,00,32,14.50
2009,09,24,00,33,14.50
2009,09,24,00,34,14.40
2009,09,24,00,35,14.40
2009,09,24,00,36,14.40
2009,09,24,00,37,14.40
2009,09,24,00,38,14.40
2009,09,24,00,39,14.40
2009,09,24,00,40,14.40
2009,09,24,00,41,14.40
2009,09,24,00,42,14.40
2009,09,24,00,43,14.40
2009,09,24,00,44,14.40
2009,09,24,00,45,14.30
2009,09,24,00,46,14.30
2009,09,24,00,47,14.30
2009,09,24,00,48,14.30
2009,09,24,00,49,14.30
2009,09,24,00,50,14.30
2009,09,24,00,51,14.20
2009,09,24,00,52,14.20
2009,09,24,00,53,14.20
2009,09,24,00,54,14.20
2009,09,24,00,55,14.20
2009,09,24,00,56,14.20
2009,09,24,00,57,14.20
2009,09,24,00,58,14.20
2009,09,24,00,59,14.20
2009,09,24,01,00,14.30
2009,09,24,01,01,14.30
2009,09,24,01,02,14.30
2009,09,24,01,03,14.30
2009,09,24,01,04,14.30
2009,09,24,01,05,14.30
2009,09,24,01,06,14.30
2009,09,24,01,07,14.30
2009,09,24,01,08,14.30
2009,09,24,01,09,14.20
2009,09,24,01,10,14.20
2009,09,24,01,11,14.20
2009,09,24,01,12,14.20
2009,09,24,01,13,14.20
2009,09,24,01,14,14.20
2009,09,24,01,15,14.20
2009,09,24,01,16,14.20
2009,09,24,01,17,14.20
2009,09,24,01,18,14.20
2009,09,24,01,19,14.20
2009,09,24,01,20,14.20
2009,09,24,01,21,14.10
2009,09,24,01,22,14.10
2009,09,24,01,23,14.10
2009,09,24,01,24,14.10
2009,09,24,01,25,14.10
2009,09,24,01,26,14.10
2009,09,24,01,27,14.10
2009,09,24,01,28,14.10
2009,09,24,01,29,14.10
2009,09,24,01,30,14.10
2009,09,24,01,31,14.10
2009,09,24,01,32,14.00
2009,09,24,01,33,14.10
2009,09,24,01,34,14.10
2009,09,24,01,35,14.10
2009,09,24,01,36,14.10
2009,09,24,01,37,14.10
2009,09,24,01,38,14.10
2009,09,24,01,39,14.10
2009,09,24,01,40,14.10
2009,09,24,01,41,14.10
2009,09,24,01,42,14.10
2009,09,24,01,43,14.10
2009,09,24,01,44,14.10
2009,09,24,01,45,14.10
2009,09,24,01,46,14.10
2009,09,24,01,47,14.10
2009,09,24,01,48,14.10
2009,09,24,01,49,14.10
2009,09,24,01,50,14.10
2009,09,24,01,51,14.10
2009,09,24,01,52,14.10
2009,09,24,01,53,14.10
2009,09,24,01,54,14.20
2009,09,24,01,55,14.20
2009,09,24,01,56,14.20
2009,09,24,01,57,14.20
2009,09,24,01,58,14.20
2009,09,24,01,59,14.20
2009,09,24,02,00,14.20
2009,09,24,02,01,14.20
2009,09,24,02,02,14.20
2009,09,24,02,03,14.20
2009,09,24,02,04,14.20
2009,09,24,02,05,14.20
2009,09,24,02,06,14.20
2009,09,24,02,07,14.20
2009,09,24,02,08,14.30
2009,09,24,02,09,14.30
2009,09,24,02,10,14.30
2009,09,24,02,11,14.30
2009,09,24,02,12,14.30
2009,09,24,02,13,14.30
2009,09,24,02,14,14.30
2009,09,24,02,15,14.30
2009,09,24,02,16,14.30
2009,09,24,02,17,14.30
2009,09,24,02,18,14.30
2009,09,24,02,19,14.30
2009,09,24,02,20,14.30
2009,09,24,02,21,14.30
2009,09,24,02,22,14.30
2009,09,24,02,23,14.30
2009,09,24,02,24,14.30
2009,09,24,02,25,14.40
2009,09,24,02,26,14.40
2009,09,24,02,27,14.40
2009,09,24,02,28,14.40
2009,09,24,02,29,14.40
2009,09,24,02,30,14.50
2009,09,24,02,31,14.50
2009,09,24,02,32,14.50
2009,09,24,02,33,14.60
2009,09,24,02,34,14.60
2009,09,24,02,35,14.60
2009,09,24,02,36,14.60
2009,09,24,02,37,14.70
2009,09,24,02,38,14.60
2009,09,24,02,39,14.60
2009,09,24,02,40,14.60
2009,09,24,02,41,14.60
2009,09,24,02,42,14.60
2009,09,24,02,43,14.60
2009,09,24,02,44,14.50
2009,09,24,02,45,14.50
2009,09,24,02,46,14.50
2009,09,24,02,47,14.40
2009,09,24,02,48,14.40
2009,09,24,02,49,14.30
2009,09,24,02,50,14.30
2009,09,24,02,51,14.30
2009,09,24,02,52,14.30
2009,09,24,02,53,14.20
2009,09,24,02,54,14.20
2009,09,24,02,55,14.20
2009,09,24,02,56,14.10
2009,09,24,02,57,14.10
2009,09,24,02,58,14.10
2009,09,24,02,59,14.00
2009,09,24,03,00,13.90
2009,09,24,03,01,13.90
2009,09,24,03,02,13.90
2009,09,24,03,03,13.80
2009,09,24,03,04,13.80
2009,09,24,03,05,13.80
2009,09,24,03,06,13.80
2009,09,24,03,07,13.80
2009,09,24,03,08,13.80
2009,09,24,03,09,13.70
2009,09,24,03,10,13.70
2009,09,24,03,11,13.70
2009,09,24,03,12,13.70
2009,09,24,03,13,13.70
2009,09,24,03,14,13.60
2009,09,24,03,15,13.60
2009,09,24,03,16,13.60
2009,09,24,03,17,13.60
2009,09,24,03,18,13.60
2009,09,24,03,19,13.60
2009,09,24,03,20,13.60
2009,09,24,03,21,13.70
2009,09,24,03,22,13.70
2009,09,24,03,23,13.80
2009,09,24,03,24,13.90
2009,09,24,03,25,13.90
2009,09,24,03,26,14.00
2009,09,24,03,27,14.00
2009,09,24,03,28,14.10
2009,09,24,03,29,14.10
2009,09,24,03,30,14.10
2009,09,24,03,31,14.10
2009,09,24,03,32,14.20
2009,09,24,03,33,14.20
2009,09,24,03,34,14.20
2009,09,24,03,35,14.20
2009,09,24,03,36,14.20
2009,09,24,03,37,14.20
2009,09,24,03,38,14.20
2009,09,24,03,39,14.10
2009,09,24,03,40,14.10
2009,09,24,03,41,14.10
2009,09,24,03,42,14.00
2009,09,24,03,43,14.00
2009,09,24,03,44,13.90
2009,09,24,03,45,13.90
2009,09,24,03,46,13.90
2009,09,24,03,47,13.80
2009,09,24,03,48,13.80
2009,09,24,03,49,13.70
2009,09,24,03,50,13.70
2009,09,24,03,51,13.60
2009,09,24,03,52,13.60
2009,09,24,03,53,13.50
2009,09,24,03,54,13.40
2009,09,24,03,55,13.40
2009,09,24,03,56,13.40
2009,09,24,03,57,13.40
2009,09,24,03,58,13.40
2009,09,24,03,59,13.40
2009,09,24,04,00,13.40
2009,09,24,04,01,13.40
2009,09,24,04,02,13.30
2009,09,24,04,03,13.30
2009,09,24,04,04,13.30
2009,09,24,04,05,13.30
2009,09,24,04,06,13.30
2009,09,24,04,07,13.30
2009,09,24,04,08,13.30
2009,09,24,04,09,13.30
2009,09,24,04,10,13.30
2009,09,24,04,11,13.30
2009,09,24,04,12,13.30
2009,09,24,04,13,13.30
2009,09,24,04,14,13.30
2009,09,24,04,15,13.30
2009,09,24,04,16,13.30
2009,09,24,04,17,13.30
2009,09,24,04,18,13.30
2009,09,24,04,19,13.30
2009,09,24,04,20,13.30
2009,09,24,04,21,13.30
2009,09,24,04,22,13.30
2009,09,24,04,23,13.30
2009,09,24,04,24,13.30
2009,09,24,04,25,13.30
2009,09,24,04,26,13.30
2009,09,24,04,27,13.30
2009,09,24,04,28,13.30
2009,09,24,04,29,13.30
2009,09,24,04,30,13.20
2009,09,24,04,31,13.20
2009,09,24,04,32,13.20
2009,09,24,04,33,13.20
2009,09,24,04,34,13.20
2009,09,24,04,35,13.20
2009,09,24,04,36,13.20
2009,09,24,04,37,13.10
2009,09,24,04,38,13.10
2009,09,24,04,39,13.10
2009,09,24,04,40,13.00
2009,09,24,04,41,13.00
2009,09,24,04,42,13.00
2009,09,24,04,43,12.90
2009,09,24,04,44,12.90
2009,09,24,04,45,12.90
2009,09,24,04,46,12.90
2009,09,24,04,47,12.90
2009,09,24,04,48,12.90
2009,09,24,04,49,12.90
2009,09,24,04,50,12.90
2009,09,24,04,51,12.90
2009,09,24,04,52,12.90
2009,09,24,04,53,12.90
2009,09,24,04,54,12.90
2009,09,24,04,55,12.90
2009,09,24,04,56,12.90
2009,09,24,04,57,12.80
2009,09,24,04,58,12.80
2009,09,24,04,59,12.80
2009,09,24,05,00,12.80
2009,09,24,05,01,12.80
2009,09,24,05,02,12.80
2009,09,24,05,03,12.80
2009,09,24,05,04,12.90
2009,09,24,05,05,12.90
2009,09,24,05,06,12.90
2009,09,24,05,07,12.90
2009,09,24,05,08,12.80
2009,09,24,05,09,12.80
2009,09,24,05,10,12.80
2009,09,24,05,11,12.80
2009,09,24,05,12,12.80
2009,09,24,05,13,12.80
2009,09,24,05,14,12.80
2009,09,24,05,15,12.80
2009,09,24,05,16,12.80
2009,09,24,05,17,12.80
2009,09,24,05,18,12.80
2009,09,24,05,19,12.80
2009,09,24,05,20,12.80
2009,09,24,05,21,12.80
2009,09,24,05,22,12.80
2009,09,24,05,23,12.80
2009,09,24,05,24,12.80
2009,09,24,05,25,12.80
2009,09,24,05,26,12.80
2009,09,24,05,27,12.80
2009,09,24,05,28,12.80
2009,09,24,05,29,12.80
2009,09,24,05,30,12.80
2009,09,24,05,31,12.70
2009,09,24,05,32,12.70
2009,09,24,05,33,12.70
2009,09,24,05,34,12.70
2009,09,24,05,35,12.70
2009,09,24,05,36,12.70
2009,09,24,05,37,12.70
2009,09,24,05,38,12.70
2009,09,24,05,39,12.60
2009,09,24,05,40,12.60
2009,09,24,05,41,12.60
2009,09,24,05,42,12.50
2009,09,24,05,43,12.50
2009,09,24,05,44,12.50
2009,09,24,05,45,12.40
2009,09,24,05,46,12.40
2009,09,24,05,47,12.40
2009,09,24,05,48,12.40
2009,09,24,05,49,12.30
2009,09,24,05,50,12.30
2009,09,24,05,51,12.30
2009,09,24,05,52,12.30
2009,09,24,05,53,12.30
2009,09,24,05,54,12.30
2009,09,24,05,55,12.30
2009,09,24,05,56,12.30
2009,09,24,05,57,12.30
2009,09,24,05,58,12.20
2009,09,24,05,59,12.20
2009,09,24,06,00,12.20
2009,09,24,06,01,12.20
2009,09,24,06,02,12.20
2009,09,24,06,03,12.20
2009,09,24,06,04,12.20
2009,09,24,06,05,12.20
2009,09,24,06,06,12.10
2009,09,24,06,07,12.10
2009,09,24,06,08,12.10
2009,09,24,06,09,12.10
2009,09,24,06,10,12.10
2009,09,24,06,11,12.10
2009,09,24,06,12,12.10
2009,09,24,06,13,12.10
2009,09,24,06,14,12.10
2009,09,24,06,15,12.00
2009,09,24,06,16,12.00
2009,09,24,06,17,12.00
2009,09,24,06,18,11.90
2009,09,24,06,19,11.90
2009,09,24,06,20,11.90
2009,09,24,06,21,11.90
2009,09,24,06,22,11.90
2009,09,24,06,23,11.90
2009,09,24,06,24,11.90
2009,09,24,06,25,11.90
2009,09,24,06,26,11.90
2009,09,24,06,27,11.90
2009,09,24,06,28,11.90
2009,09,24,06,29,11.80
2009,09,24,06,30,11.80
2009,09,24,06,31,11.80
2009,09,24,06,32,11.80
2009,09,24,06,33,11.80
2009,09,24,06,34,11.70
2009,09,24,06,35,11.70
2009,09,24,06,36,11.70
2009,09,24,06,37,11.70
2009,09,24,06,38,11.70
2009,09,24,06,39,11.70
2009,09,24,06,40,11.60
2009,09,24,06,41,11.60
2009,09,24,06,42,11.60
2009,09,24,06,43,11.50
2009,09,24,06,44,11.50
2009,09,24,06,45,11.50
2009,09,24,06,46,11.40
2009,09,24,06,47,11.40
2009,09,24,06,48,11.40
2009,09,24,06,49,11.40
2009,09,24,06,50,11.40
2009,09,24,06,51,11.40
2009,09,24,06,52,11.40
2009,09,24,06,53,11.30
2009,09,24,06,54,11.30
2009,09,24,06,55,11.30
2009,09,24,06,56,11.30
2009,09,24,06,57,11.30
2009,09,24,06,58,11.30
2009,09,24,06,59,11.30
2009,09,24,07,00,11.20
2009,09,24,07,01,11.20
2009,09,24,07,02,11.30
2009,09,24,07,03,11.20
2009,09,24,07,04,11.20
2009,09,24,07,05,11.20
2009,09,24,07,06,11.20
2009,09,24,07,07,11.20
2009,09,24,07,08,11.20
2009,09,24,07,09,11.20
2009,09,24,07,10,11.20
2009,09,24,07,11,11.20
2009,09,24,07,12,11.20
2009,09,24,07,13,11.20
2009,09,24,07,14,11.10
2009,09,24,07,15,11.10
2009,09,24,07,16,11.10
2009,09,24,07,17,11.10
2009,09,24,07,18,11.10
2009,09,24,07,19,11.10
2009,09,24,07,20,11.10
2009,09,24,07,21,11.10
2009,09,24,07,22,11.10
2009,09,24,07,23,11.10
2009,09,24,07,24,11.10
2009,09,24,07,25,11.10
2009,09,24,07,26,11.10
2009,09,24,07,27,11.10
2009,09,24,07,28,11.10
2009,09,24,07,29,11.10
2009,09,24,07,30,11.10
2009,09,24,07,31,11.10
2009,09,24,07,32,11.10
2009,09,24,07,33,11.10
2009,09,24,07,34,11.10
2009,09,24,07,35,11.10
2009,09,24,07,36,11.10
2009,09,24,07,37,11.10
2009,09,24,07,38,11.10
2009,09,24,07,39,11.10
2009,09,24,07,40,11.00
2009,09,24,07,41,11.00
2009,09,24,07,42,11.00
2009,09,24,07,43,11.00
2009,09,24,07,44,11.10
2009,09,24,07,45,11.10
2009,09,24,07,46,11.10
2009,09,24,07,47,11.10
2009,09,24,07,48,11.10
2009,09,24,07,49,11.10
2009,09,24,07,50,11.10
2009,09,24,07,51,11.20
2009,09,24,07,52,11.20
2009,09,24,07,53,11.20
2009,09,24,07,54,11.20
2009,09,24,07,55,11.20
2009,09,24,07,56,11.20
2009,09,24,07,57,11.20
2009,09,24,07,58,11.20
2009,09,24,07,59,11.20
2009,09,24,08,00,11.30
2009,09,24,08,01,11.30
2009,09,24,08,02,11.30
2009,09,24,08,03,11.30
2009,09,24,08,04,11.30
2009,09,24,08,05,11.30
2009,09,24,08,06,11.30
2009,09,24,08,07,11.30
2009,09,24,08,08,11.30
2009,09,24,08,09,11.40
2009,09,24,08,10,11.40
2009,09,24,08,11,11.40
2009,09,24,08,12,11.40
2009,09,24,08,13,11.50
2009,09,24,08,14,11.50
2009,09,24,08,15,11.60
2009,09,24,08,16,11.60
2009,09,24,08,17,11.60
2009,09,24,08,18,11.60
2009,09,24,08,19,11.70
2009,09,24,08,20,11.70
2009,09,24,08,21,11.70
2009,09,24,08,22,11.70
2009,09,24,08,23,11.80
2009,09,24,08,24,11.80
2009,09,24,08,25,11.90
2009,09,24,08,26,11.90
2009,09,24,08,27,12.00
2009,09,24,08,28,12.00
2009,09,24,08,29,12.10
2009,09,24,08,30,12.10
2009,09,24,08,31,12.10
2009,09,24,08,32,12.10
2009,09,24,08,33,12.10
2009,09,24,08,34,12.00
2009,09,24,08,35,12.10
2009,09,24,08,36,12.10
2009,09,24,08,37,12.20
2009,09,24,08,38,12.30
2009,09,24,08,39,12.40
2009,09,24,08,40,12.50
2009,09,24,08,41,12.60
2009,09,24,08,42,12.60
2009,09,24,08,43,12.70
2009,09,24,08,44,12.80
2009,09,24,08,45,12.90
2009,09,24,08,46,13.00
2009,09,24,08,47,13.00
2009,09,24,08,48,13.10
2009,09,24,08,49,13.10
2009,09,24,08,50,13.10
2009,09,24,08,51,13.20
2009,09,24,08,52,13.20
2009,09,24,08,53,13.20
2009,09,24,08,54,13.30
2009,09,24,08,55,13.30
2009,09,24,08,56,13.30
2009,09,24,08,57,13.40
2009,09,24,08,58,13.50
2009,09,24,08,59,13.60
2009,09,24,09,00,13.60
2009,09,24,09,01,13.70
2009,09,24,09,02,13.70
2009,09,24,09,03,13.80
2009,09,24,09,04,14.00
2009,09,24,09,05,14.10
2009,09,24,09,06,14.10
2009,09,24,09,07,14.10
2009,09,24,09,08,14.10
2009,09,24,09,09,14.10
2009,09,24,09,10,14.10
2009,09,24,09,11,14.10
2009,09,24,09,12,14.20
2009,09,24,09,13,14.20
2009,09,24,09,14,14.30
2009,09,24,09,15,14.20
2009,09,24,09,16,14.20
2009,09,24,09,17,14.20
2009,09,24,09,18,14.30
2009,09,24,09,19,14.40
2009,09,24,09,20,14.50
2009,09,24,09,21,14.50
2009,09,24,09,22,14.60
2009,09,24,09,23,14.60
2009,09,24,09,24,14.50
2009,09,24,09,25,14.50
2009,09,24,09,26,14.50
2009,09,24,09,27,14.50
2009,09,24,09,28,14.50
2009,09,24,09,29,14.50
2009,09,24,09,30,14.40
2009,09,24,09,31,14.40
2009,09,24,09,32,14.30
2009,09,24,09,33,14.20
2009,09,24,09,34,14.20
2009,09,24,09,35,14.20
2009,09,24,09,36,14.20
2009,09,24,09,37,14.20
2009,09,24,09,38,14.20
2009,09,24,09,39,14.20
2009,09,24,09,40,14.20
2009,09,24,09,41,14.30
2009,09,24,09,42,14.30
2009,09,24,09,43,14.30
2009,09,24,09,44,14.30
2009,09,24,09,45,14.30
2009,09,24,09,46,14.30
2009,09,24,09,47,14.30
2009,09,24,09,48,14.30
2009,09,24,09,49,14.30
2009,09,24,09,50,14.30
2009,09,24,09,51,14.40
2009,09,24,09,52,14.40
2009,09,24,09,53,14.40
2009,09,24,09,54,14.40
2009,09,24,09,55,14.40
2009,09,24,09,56,14.40
2009,09,24,09,57,14.40
2009,09,24,09,58,14.40
2009,09,24,09,59,14.40
2009,09,24,10,00,14.50
2009,09,24,10,01,14.60
2009,09,24,10,02,14.70
2009,09,24,10,03,14.80
2009,09,24,10,04,14.80
2009,09,24,10,05,14.90
2009,09,24,10,06,14.90
2009,09,24,10,07,14.80
2009,09,24,10,08,14.80
2009,09,24,10,09,14.70
2009,09,24,10,10,14.70
2009,09,24,10,11,14.70
2009,09,24,10,12,14.70
2009,09,24,10,13,14.80
2009,09,24,10,14,14.80
2009,09,24,10,15,14.80
2009,09,24,10,16,14.80
2009,09,24,10,17,14.80
2009,09,24,10,18,14.80
2009,09,24,10,19,14.80
2009,09,24,10,20,14.70
2009,09,24,10,21,14.70
2009,09,24,10,22,14.70
2009,09,24,10,23,14.70
2009,09,24,10,24,14.70
2009,09,24,10,25,14.80
2009,09,24,10,26,14.80
2009,09,24,10,30,15.00
2009,09,24,10,31,15.00
2009,09,24,10,32,15.00
2009,09,24,10,33,15.00
2009,09,24,10,34,15.00
2009,09,24,10,35,14.90
2009,09,24,10,36,14.90
2009,09,24,10,37,15.00
2009,09,24,10,38,15.00
2009,09,24,10,39,15.00
2009,09,24,10,40,15.00
2009,09,24,10,41,15.00
2009,09,24,10,42,15.00
2009,09,24,10,43,15.00
2009,09,24,10,44,15.00
2009,09,24,10,45,15.10
2009,09,24,10,46,15.20
2009,09,24,10,47,15.20
2009,09,24,10,48,15.10
2009,09,24,10,49,15.10
2009,09,24,10,50,15.00
2009,09,24,10,51,15.00
2009,09,24,10,52,15.00
2009,09,24,10,53,15.00
2009,09,24,10,54,15.00
2009,09,24,10,55,15.00
2009,09,24,10,56,15.00
2009,09,24,10,57,15.00
2009,09,24,10,58,15.00
2009,09,24,10,59,15.00
2009,09,24,11,00,15.00
2009,09,24,11,01,15.00
2009,09,24,11,02,15.10
2009,09,24,11,03,15.00
2009,09,24,11,04,15.00
2009,09,24,11,05,15.00
2009,09,24,11,06,15.00
2009,09,24,11,07,15.00
2009,09,24,11,08,15.00
2009,09,24,11,09,15.00
2009,09,24,11,10,15.00
2009,09,24,11,11,15.00
2009,09,24,11,12,15.00
2009,09,24,11,13,15.00
2009,09,24,11,14,15.00
2009,09,24,11,15,15.00
2009,09,24,11,16,15.00
2009,09,24,11,17,15.00
2009,09,24,11,18,15.00
2009,09,24,11,19,15.00
2009,09,24,11,20,15.00
2009,09,24,11,21,15.20
2009,09,24,11,22,15.40
2009,09,24,11,23,15.40
2009,09,24,11,24,15.50
2009,09,24,11,25,15.50
2009,09,24,11,26,15.50
2009,09,24,11,27,15.50
2009,09,24,11,28,15.50
2009,09,24,11,29,15.50
2009,09,24,11,30,15.50
2009,09,24,11,31,15.60
2009,09,24,11,32,15.60
2009,09,24,11,33,15.60
2009,09,24,11,34,15.70
2009,09,24,11,35,15.70
2009,09,24,11,36,15.70
2009,09,24,11,37,15.70
2009,09,24,11,38,15.60
2009,09,24,11,39,15.60
2009,09,24,11,40,15.50
2009,09,24,11,41,15.40
2009,09,24,11,42,15.20
2009,09,24,11,43,15.10
2009,09,24,11,44,15.00
2009,09,24,11,45,15.00
2009,09,24,11,46,15.00
2009,09,24,11,47,15.00
2009,09,24,11,48,15.00
2009,09,24,11,49,15.00
2009,09,24,11,50,15.20
2009,09,24,11,51,15.40
2009,09,24,11,52,15.60
2009,09,24,11,53,15.70
2009,09,24,11,54,15.80
2009,09,24,11,55,15.80
2009,09,24,11,56,15.70
2009,09,24,11,57,15.70
2009,09,24,11,58,15.80
2009,09,24,11,59,15.70
2009,09,24,12,00,15.60
2009,09,24,12,01,15.60
2009,09,24,12,02,15.60
2009,09,24,12,03,15.60
2009,09,24,12,04,15.60
2009,09,24,12,05,15.70
2009,09,24,12,06,15.70
2009,09,24,12,07,15.80
2009,09,24,12,08,15.90
2009,09,24,12,09,15.90
2009,09,24,12,10,16.00
2009,09,24,12,11,16.10
2009,09,24,12,12,16.20
2009,09,24,12,13,16.30
2009,09,24,12,14,16.30
2009,09,24,12,15,16.40
2009,09,24,12,16,16.40
2009,09,24,12,17,16.40
2009,09,24,12,18,16.30
2009,09,24,12,19,16.20
2009,09,24,12,20,16.20
2009,09,24,12,21,16.20
2009,09,24,12,22,16.10
2009,09,24,12,23,16.10
2009,09,24,12,24,16.20
2009,09,24,12,25,16.20
2009,09,24,12,26,16.10
2009,09,24,12,27,16.10
2009,09,24,12,28,16.00
2009,09,24,12,29,16.00
2009,09,24,12,30,15.90
2009,09,24,12,31,16.00
2009,09,24,12,32,16.00
2009,09,24,12,33,15.90
2009,09,24,12,34,15.90
2009,09,24,12,35,15.90
2009,09,24,12,36,15.90
2009,09,24,12,37,15.80
2009,09,24,12,38,15.90
2009,09,24,12,39,15.80
2009,09,24,12,40,15.80
2009,09,24,12,41,15.80
2009,09,24,12,42,15.90
2009,09,24,12,43,15.80
2009,09,24,12,44,15.90
2009,09,24,12,45,16.00
2009,09,24,12,46,16.00
2009,09,24,12,47,16.00
2009,09,24,12,48,15.90
2009,09,24,12,49,15.90
2009,09,24,12,50,15.90
2009,09,24,12,51,16.00
2009,09,24,12,52,15.90
2009,09,24,12,53,15.90
2009,09,24,12,54,15.80
2009,09,24,12,55,15.90
2009,09,24,12,56,15.90
2009,09,24,12,57,15.80
2009,09,24,12,58,15.80
2009,09,24,12,59,15.80
2009,09,24,13,00,15.80
2009,09,24,13,01,15.80
2009,09,24,13,02,15.80
2009,09,24,13,03,15.80
2009,09,24,13,04,15.80
2009,09,24,13,05,15.80
2009,09,24,13,06,15.90
2009,09,24,13,07,15.90
2009,09,24,13,08,15.90
2009,09,24,13,09,16.00
2009,09,24,13,10,16.10
2009,09,24,13,11,16.10
2009,09,24,13,12,16.20
2009,09,24,13,13,16.30
2009,09,24,13,14,16.30
2009,09,24,13,15,16.30
2009,09,24,13,16,16.30
2009,09,24,13,17,16.30
2009,09,24,13,18,16.30
2009,09,24,13,19,16.30
2009,09,24,13,20,16.30
2009,09,24,13,21,16.30
2009,09,24,13,22,16.30
2009,09,24,13,23,16.40
2009,09,24,13,24,16.40
2009,09,24,13,25,16.40
2009,09,24,13,26,16.40
2009,09,24,13,27,16.40
2009,09,24,13,28,16.40
2009,09,24,13,29,16.30
2009,09,24,13,30,16.30
2009,09,24,13,31,16.20
2009,09,24,13,32,16.30
2009,09,24,13,33,16.40
2009,09,24,13,34,16.40
2009,09,24,13,35,16.40
2009,09,24,13,36,16.40
2009,09,24,13,37,16.40
2009,09,24,13,38,16.40
2009,09,24,13,39,16.40
2009,09,24,13,40,16.50
2009,09,24,13,41,16.50
2009,09,24,13,42,16.50
2009,09,24,13,43,16.50
2009,09,24,13,44,16.50
2009,09,24,13,45,16.40
2009,09,24,13,46,16.50
2009,09,24,13,47,16.50
2009,09,24,13,48,16.50
2009,09,24,13,49,16.50
2009,09,24,13,50,16.40
2009,09,24,13,51,16.40
2009,09,24,13,52,16.30
2009,09,24,13,53,16.30
2009,09,24,13,54,16.30
2009,09,24,13,55,16.40
2009,09,24,13,56,16.40
2009,09,24,13,57,16.40
2009,09,24,13,58,16.50
2009,09,24,13,59,16.50
2009,09,24,14,00,16.50
2009,09,24,14,01,16.50
2009,09,24,14,02,16.50
2009,09,24,14,03,16.50
2009,09,24,14,04,16.50
2009,09,24,14,05,16.60
2009,09,24,14,06,16.60
2009,09,24,14,07,16.70
2009,09,24,14,08,16.70
2009,09,24,14,09,16.70
2009,09,24,14,10,16.70
2009,09,24,14,11,16.80
2009,09,24,14,12,16.80
2009,09,24,14,13,16.90
2009,09,24,14,14,16.90
2009,09,24,14,15,17.00
2009,09,24,14,16,17.10
2009,09,24,14,17,17.10
2009,09,24,14,18,17.10
2009,09,24,14,19,17.10
2009,09,24,14,20,17.00
2009,09,24,14,21,17.00
2009,09,24,14,22,16.90
2009,09,24,14,23,16.90
2009,09,24,14,24,16.90
2009,09,24,14,25,16.90
2009,09,24,14,26,17.00
2009,09,24,14,27,17.10
2009,09,24,14,28,17.10
2009,09,24,14,29,17.10
2009,09,24,14,30,17.20
2009,09,24,14,31,17.10
2009,09,24,14,32,17.10
2009,09,24,14,33,17.10
2009,09,24,14,34,17.10
2009,09,24,14,35,17.20
2009,09,24,14,36,17.20
2009,09,24,14,37,17.20
2009,09,24,14,38,17.20
2009,09,24,14,39,17.30
2009,09,24,14,40,17.30
2009,09,24,14,41,17.40
2009,09,24,14,42,17.40
2009,09,24,14,43,17.50
2009,09,24,14,44,17.50
2009,09,24,14,45,17.50
2009,09,24,14,46,17.40
2009,09,24,14,47,17.40
2009,09,24,14,48,17.30
2009,09,24,14,49,17.20
2009,09,24,14,50,17.10
2009,09,24,14,51,17.10
2009,09,24,14,52,17.10
2009,09,24,14,53,17.20
2009,09,24,14,54,17.20
2009,09,24,14,55,17.20
2009,09,24,14,56,17.20
2009,09,24,14,57,17.30
2009,09,24,14,58,17.30
2009,09,24,14,59,17.30
2009,09,24,15,00,17.30
2009,09,24,15,01,17.30
2009,09,24,15,02,17.40
2009,09,24,15,03,17.40
2009,09,24,15,04,17.50
2009,09,24,15,05,17.60
2009,09,24,15,06,17.60
2009,09,24,15,07,17.60
2009,09,24,15,08,17.60
2009,09,24,15,09,17.60
2009,09,24,15,10,17.60
2009,09,24,15,11,17.60
2009,09,24,15,12,17.70
2009,09,24,15,13,17.70
2009,09,24,15,14,17.70
2009,09,24,15,15,17.70
2009,09,24,15,16,17.70
2009,09,24,15,17,17.60
2009,09,24,15,18,17.60
2009,09,24,15,19,17.60
2009,09,24,15,20,17.60
2009,09,24,15,21,17.60
2009,09,24,15,22,17.60
2009,09,24,15,23,17.70
2009,09,24,15,24,17.80
2009,09,24,15,25,17.80
2009,09,24,15,26,17.80
2009,09,24,15,27,17.70
2009,09,24,15,28,17.80
2009,09,24,15,29,17.80
2009,09,24,15,30,17.80
2009,09,24,15,31,17.80
2009,09,24,15,32,17.80
2009,09,24,15,33,17.70
2009,09,24,15,34,17.70
2009,09,24,15,35,17.60
2009,09,24,15,36,17.60
2009,09,24,15,37,17.60
2009,09,24,15,38,17.70
2009,09,24,15,39,17.70
2009,09,24,15,40,17.70
2009,09,24,15,41,17.80
2009,09,24,15,42,17.80
2009,09,24,15,43,17.90
2009,09,24,15,44,17.90
2009,09,24,15,45,18.00
2009,09,24,15,46,18.10
2009,09,24,15,47,18.20
2009,09,24,15,48,18.30
2009,09,24,15,49,18.40
2009,09,24,15,50,18.50
2009,09,24,15,51,18.50
2009,09,24,15,52,18.60
2009,09,24,15,53,18.60
2009,09,24,15,54,18.60
2009,09,24,15,55,18.60
2009,09,24,15,56,18.60
2009,09,24,15,57,18.60
2009,09,24,15,58,18.60
2009,09,24,15,59,18.50
2009,09,24,16,00,18.40
2009,09,24,16,01,18.30
2009,09,24,16,02,18.30
2009,09,24,16,03,18.20
2009,09,24,16,04,18.10
2009,09,24,16,05,18.10
2009,09,24,16,06,18.00
2009,09,24,16,07,17.90
2009,09,24,16,08,17.90
2009,09,24,16,09,17.90
2009,09,24,16,10,17.90
2009,09,24,16,11,17.90
2009,09,24,16,12,17.90
2009,09,24,16,13,17.90
2009,09,24,16,14,17.90
2009,09,24,16,15,18.00
2009,09,24,16,16,18.10
2009,09,24,16,17,18.20
2009,09,24,16,18,18.20
2009,09,24,16,19,18.20
2009,09,24,16,20,18.20
2009,09,24,16,21,18.20
2009,09,24,16,22,18.20
2009,09,24,16,23,18.20
2009,09,24,16,24,18.10
2009,09,24,16,25,18.10
2009,09,24,16,26,18.20
2009,09,24,16,27,18.20
2009,09,24,16,28,18.20
2009,09,24,16,29,18.20
2009,09,24,16,30,18.20
2009,09,24,16,31,18.20
2009,09,24,16,32,18.20
2009,09,24,16,33,18.30
2009,09,24,16,34,18.30
2009,09,24,16,35,18.30
2009,09,24,16,36,18.30
2009,09,24,16,37,18.30
2009,09,24,16,38,18.40
2009,09,24,16,39,18.40
2009,09,24,16,40,18.40
2009,09,24,16,41,18.30
2009,09,24,16,42,18.30
2009,09,24,16,43,18.30
2009,09,24,16,44,18.30
2009,09,24,16,45,18.30
2009,09,24,16,46,18.30
2009,09,24,16,47,18.30
2009,09,24,16,48,18.30
2009,09,24,16,49,18.40
2009,09,24,16,50,18.40
2009,09,24,16,51,18.40
2009,09,24,16,52,18.50
2009,09,24,16,53,18.60
2009,09,24,16,54,18.60
2009,09,24,16,55,18.60
2009,09,24,16,56,18.60
2009,09,24,16,57,18.60
2009,09,24,16,58,18.50
2009,09,24,16,59,18.50
2009,09,24,17,00,18.40
2009,09,24,17,01,18.40
2009,09,24,17,02,18.30
2009,09,24,17,03,18.30
2009,09,24,17,04,18.20
2009,09,24,17,05,18.20
2009,09,24,17,06,18.10
2009,09,24,17,07,18.00
2009,09,24,17,08,18.00
2009,09,24,17,09,17.90
2009,09,24,17,10,17.90
2009,09,24,17,11,18.00
2009,09,24,17,12,18.00
2009,09,24,17,13,18.00
2009,09,24,17,14,18.10
2009,09,24,17,15,18.10
2009,09,24,17,16,18.20
2009,09,24,17,17,18.20
2009,09,24,17,18,18.20
2009,09,24,17,19,18.30
2009,09,24,17,20,18.40
2009,09,24,17,21,18.40
2009,09,24,17,22,18.50
2009,09,24,17,23,18.50
2009,09,24,17,24,18.60
2009,09,24,17,25,18.60
2009,09,24,17,26,18.60